Volver al catálogo

DELTA 1 DEB

ActivoSSO
NORAD 9977·DEBRIS·🇺🇸 United States

Lanzado Nov 6, 1973 desde Vandenberg Space Force Base

Loading…

Próximos Pases (próximas 24 horas)

TLE

ActualizadoSource: Space-Track

Época: Sep 12, 2026, 04:40 UTC

1 09977U 73086GG  26255.19475032  .00000060  00000-0  64940-3 0  9999
2 09977 101.8855 342.5309 0070004  20.2519  11.4148 12.54386802334466

Sigue DELTA 1 DEB en tiempo real con AllMySat

Download on the App Store